Wind_Speed
30 31 31 31 31 32 32 32 32 32 32 33 33 32 32 33 34 34 35 35 35 35 36 36 36 37 37 37 37 38 38 38 39 40 40 40 40 40 40 40 40 41 40 40
31 31 30 31 32 32 33 33 33 33 34 35 35 34 34 35 35 35 36 36 36 36 37 38 37 38 38 38 39 39 39 39 40 41 41 41 42 41 41 41 41 41 42 41
32 31 31 32 33 33 34 33 34 34 34 36 36 36 35 35 36 36 36 37 37 38 38 38 39 39 39 39 39 40 40 40 41 42 42 42 42 42 42 42 43 43 42 42
31 32 32 33 33 34 35 35 35 36 36 36 36 37 35 35 36 37 37 37 38 39 39 39 39 40 40 40 40 40 40 40 41 41 42 42 41 42 42 42 43 43 43 42
31 31 32 33 33 34 35 36 37 37 38 38 37 38 36 35 36 36 37 38 38 39 39 39 39 40 40 40 40 40 40 40 40 41 41 41 42 42 42 42 42 42 42 42
31 31 32 32 32 34 35 36 37 38 39 40 37 38 38 36 35 36 37 37 38 39 40 40 40 40 40 40 40 40 40 40 40 41 41 42 42 42 42 43 42 42 42 42
30 31 31 32 32 33 34 35 36 37 39 40 39 39 39 36 36 37 37 38 38 38 39 40 40 39 39 40 40 40 40 40 41 41 41 42 42 42 42 42 42 42 42 42
30 30 31 32 32 33 33 34 35 36 38 40 39 40 38 37 37 37 37 37 37 37 38 38 38 38 39 39 40 41 41 41 41 40 40 41 41 42 41 41 41 41 42 42
30 31 30 30 30 31 31 31 33 35 37 38 39 39 37 36 37 37 36 36 36 35 36 37 38 38 38 39 39 40 40 40 40 40 40 40 40 41 40 40 40 40 41 41
29 30 29 29 30 30 30 30 30 32 34 35 36 37 36 35 36 35 34 34 34 34 34 35 36 37 37 37 38 39 39 39 39 40 40 40 40 39 39 39 39 39 40 40
30 30 29 29 29 29 29 30 30 31 32 34 36 35 34 35 35 35 34 34 33 33 34 35 35 36 36 37 37 38 38 38 38 38 39 39 39 39 39 39 38 38 38 39
30 30 29 29 28 29 30 30 30 31 32 33 35 36 34 35 35 35 35 34 34 33 34 35 35 35 35 35 36 36 37 37 36 37 37 37 37 37 37 37 37 37 37 37
30 30 30 29 29 29 29 30 31 32 33 33 34 34 33 34 35 35 35 35 35 34 34 34 34 35 34 35 35 35 35 35 35 35 36 36 36 35 35 35 35 36 36 36
30 30 30 30 30 31 31 31 31 32 33 34 34 33 32 33 35 36 36 35 35 35 34 33 33 33 33 34 34 34 34 34 35 35 35 35 34 34 33 34 35 35 36 36
31 31 30 30 31 31 32 32 32 33 33 34 33 34 33 34 34 35 36 36 35 34 34 34 33 33 33 33 33 33 33 34 34 34 34 34 34 34 33 34 34 35 35 36
31 31 31 31 30 31 33 32 32 33 34 34 34 33 32 34 35 35 35 36 35 35 35 35 34 33 33 33 33 33 32 32 33 33 33 32 33 33 33 34 34 34 35 35
32 32 32 32 31 33 33 30 31 33 34 35 34 32 32 33 34 35 36 36 36 36 35 34 34 34 33 32 32 33 32 32 31 31 31 31 32 32 33 33 33 33 33 33
31 31 32 33 33 34 31 30 30 31 31 31 33 33 33 33 34 34 35 35 36 36 35 34 34 33 33 33 33 33 33 33 32 32 31 31 31 31 31 32 32 32 32 32
30 31 31 31 32 33 31 29 29 29 29 30 32 33 33 32 32 32 33 34 35 36 36 35 34 34 34 34 33 33 33 33 32 31 31 30 31 31 31 31 30 31 31 31
30 31 31 31 32 32 30 29 29 30 30 30 31 32 32 32 32 30 31 33 35 35 36 36 35 34 33 33 33 33 33 32 32 31 31 31 31 32 31 31 31 31 31 31
30 31 31 31 32 31 29 29 29 30 30 30 30 31 31 31 32 32 32 34 35 35 35 35 35 34 34 33 33 32 32 32 32 32 32 31 31 31 31 31 30 30 31 31
29 30 30 30 30 29 29 29 30 30 30 30 30 30 31 31 31 32 32 33 34 34 33 33 33 33 33 33 32 32 32 32 31 31 31 30 30 30 30 31 30 30 30 30
30 29 29 29 28 28 29 30 31 31 31 31 31 31 31 31 31 32 32 32 32 33 33 32 31 31 31 32 32 32 32 31 31 30 30 30 29 29 30 31 31 30 29 30
30 30 30 29 28 28 29 30 31 31 31 32 32 32 32 32 32 32 32 31 31 31 31 31 31 30 30 30 31 31 31 30 30 29 29 29 29 29 30 30 29 30 30 30
30 30 30 30 29 30 30 30 31 31 31 31 32 33 33 32 31 30 29 29 29 29 29 29 29 29 28 29 29 29 28 29 29 29 29 29 29 28 29 29 28 28 29 29
29 29 30 30 30 31 30 31 31 31 31 31 31 31 31 30 29 28 28 28 28 28 28 28 28 28 28 27 27 27 27 27 27 27 28 28 28 27 27 27 27 27 28 28
Wind_Direction
259 259 259 261 262 262 261 262 262 261 261 261 261 261 261 261 261 261 262 263 264 265 265 265 266 268 269 270 270 271 270 269 269 268 267 267 267 267 268 268 268 267 267 266
261 260 261 261 261 262 261 263 262 262 261 262 262 261 261 261 261 262 263 264 264 265 266 266 267 269 270 271 271 271 271 270 269 268 267 267 267 267 268 269 269 268 267 266
263 263 262 261 261 261 261 263 263 264 263 262 263 262 261 261 262 263 264 265 265 265 266 267 269 270 270 271 272 272 272 271 270 269 268 268 268 268 269 268 268 267 267 267
265 264 262 261 261 262 262 261 263 263 264 264 264 265 262 262 264 265 265 266 267 267 267 268 269 270 270 271 272 272 273 272 270 269 268 267 267 268 268 268 268 268 267 266
265 264 263 262 263 263 265 264 263 262 264 264 264 266 265 265 265 266 268 269 269 269 269 269 270 270 270 271 271 273 273 272 271 270 269 268 267 267 268 268 268 267 267 266
265 265 264 263 264 265 266 266 265 263 263 264 265 268 267 267 268 268 269 270 271 271 270 270 270 270 271 270 271 272 272 271 271 271 270 269 268 267 268 267 266 266 265 265
267 266 265 265 267 267 268 268 268 266 264 265 266 269 269 272 272 272 272 272 272 273 273 272 271 271 271 271 271 272 273 272 272 272 271 270 268 268 268 267 265 265 264 264
271 269 268 268 269 271 269 268 267 268 268 267 267 269 271 273 274 274 274 274 273 274 274 274 273 272 272 272 272 273 273 273 272 272 272 270 268 266 266 266 264 264 263 264
271 272 272 270 270 271 269 268 268 268 270 270 270 271 271 272 274 274 275 275 274 275 275 274 273 273 273 273 274 274 274 272 272 272 271 270 269 267 266 266 264 264 263 264
271 272 272 273 271 270 270 269 268 266 268 271 271 273 274 274 275 276 275 274 274 273 274 274 274 275 274 275 275 275 274 273 273 273 272 271 270 268 267 266 264 264 264 264
271 272 272 272 273 273 272 269 267 267 268 270 273 273 275 276 277 277 275 273 274 274 273 273 274 276 276 276 276 276 275 273 272 273 273 271 270 269 267 266 265 266 266 266
269 270 272 273 273 273 272 270 268 268 270 271 272 274 275 277 278 277 275 273 275 275 275 275 275 276 277 277 276 276 275 274 273 274 273 272 270 268 268 267 267 267 267 267
269 269 271 271 271 271 271 269 268 268 270 271 271 273 275 275 276 276 276 273 274 275 275 276 276 276 277 276 276 275 273 273 274 275 275 272 270 268 267 267 267 267 267 267
269 269 270 271 272 271 271 269 268 268 269 269 269 273 274 274 275 275 275 274 275 275 275 276 277 277 278 278 278 276 274 273 274 276 276 272 270 268 267 267 266 266 266 266
269 268 269 271 273 272 271 270 269 269 269 270 271 273 274 274 275 275 274 274 275 275 274 275 277 278 279 279 278 277 275 274 275 276 276 272 269 267 267 267 267 267 266 266
270 269 269 270 272 273 273 273 272 269 269 272 274 274 275 273 273 273 273 274 274 275 274 274 276 277 278 278 277 276 275 274 275 276 276 273 269 268 267 268 267 267 267 266
269 269 269 270 271 273 275 277 274 273 272 274 275 276 276 276 274 274 274 274 275 275 274 274 275 275 276 276 276 274 274 275 276 276 276 273 270 268 268 268 269 268 268 267
268 268 269 271 272 273 276 276 276 275 275 277 278 278 278 277 276 275 275 275 275 274 274 274 274 273 273 273 273 272 272 273 274 274 273 272 270 268 268 268 269 269 269 267
267 267 268 270 272 274 274 276 276 276 276 278 281 280 279 278 277 276 274 274 274 275 275 275 274 272 271 271 271 270 271 272 273 273 271 270 268 268 268 267 267 269 270 268
267 266 267 269 272 275 277 277 277 277 279 281 282 282 280 279 278 278 277 275 275 275 275 274 273 272 271 270 270 270 270 271 271 271 270 268 268 268 267 267 267 268 268 267
267 267 267 269 273 277 278 278 279 279 283 283 283 283 282 281 280 279 280 279 277 277 276 273 272 271 271 270 270 270 271 271 270 270 271 269 268 268 267 267 267 268 267 265
270 270 270 270 274 278 278 279 280 282 283 284 284 284 283 283 282 281 281 281 279 278 277 275 273 272 271 270 269 270 271 271 270 269 269 270 269 267 266 267 267 267 267 266
269 271 271 270 273 276 277 280 281 283 283 284 285 284 284 284 283 282 282 281 279 279 277 275 273 272 271 270 270 270 270 269 268 267 267 268 268 267 267 268 267 266 266 265
267 267 267 268 270 273 275 278 281 283 284 284 285 285 285 285 284 283 284 282 280 279 277 274 274 273 271 270 270 269 268 266 266 266 266 266 267 268 269 269 267 266 266 266
267 266 266 268 270 270 272 276 279 282 283 285 286 286 285 284 283 283 283 282 279 278 277 275 274 273 272 271 271 269 268 266 266 265 265 266 267 269 268 268 268 268 268 267
267 267 267 269 271 272 274 277 279 281 283 284 285 285 284 283 281 281 282 281 279 278 277 276 275 274 272 271 270 269 268 268 267 266 265 265 267 268 269 269 268 268 269 268
Height
5709 5711 5711 5712 5713 5713 5714 5714 5714 5715 5716 5716 5718 5719 5720 5721 5722 5723 5723 5724 5725 5726 5727 5727 5728 5729 5729 5730 5730 5730 5730 5730 5730 5731 5732 5732 5733 5734 5734 5735 5735 5736 5736 5737
5701 5702 5704 5704 5704 5705 5705 5705 5706 5706 5707 5708 5709 5710 5712 5712 5713 5714 5715 5716 5717 5717 5718 5718 5719 5720 5720 5720 5720 5720 5720 5720 5720 5721 5721 5722 5723 5723 5724 5725 5725 5726 5726 5727
5693 5695 5695 5695 5696 5696 5696 5697 5697 5697 5698 5699 5699 5701 5703 5704 5705 5706 5706 5707 5707 5708 5709 5710 5710 5710 5710 5710 5710 5710 5710 5709 5710 5710 5711 5711 5712 5713 5713 5714 5714 5715 5715 5717
5684 5685 5685 5686 5687 5687 5688 5688 5688 5688 5689 5690 5691 5690 5695 5695 5695 5697 5697 5698 5698 5699 5699 5700 5700 5700 5700 5700 5700 5699 5699 5699 5699 5699 5700 5701 5702 5702 5703 5703 5703 5704 5704 5705
5675 5676 5676 5677 5678 5678 5678 5679 5680 5680 5680 5680 5681 5681 5685 5686 5686 5687 5688 5689 5689 5689 5689 5690 5690 5690 5690 5690 5689 5689 5689 5689 5689 5689 5689 5690 5691 5691 5692 5692 5692 5693 5693 5694
5667 5667 5668 5669 5669 5669 5670 5671 5671 5670 5670 5671 5674 5673 5674 5677 5678 5678 5679 5679 5680 5680 5679 5679 5680 5679 5679 5679 5679 5679 5678 5678 5678 5678 5678 5679 5679 5680 5680 5680 5681 5681 5682 5683
5658 5659 5659 5660 5661 5661 5661 5662 5661 5661 5660 5662 5665 5663 5666 5669 5669 5669 5669 5670 5670 5670 5669 5669 5669 5669 5669 5669 5669 5668 5668 5668 5668 5667 5667 5667 5668 5668 5668 5668 5669 5670 5671 5672
5649 5650 5651 5651 5652 5652 5652 5653 5653 5652 5652 5653 5655 5654 5658 5659 5659 5659 5659 5659 5660 5660 5660 5659 5659 5659 5659 5659 5658 5658 5657 5657 5657 5656 5656 5655 5656 5656 5656 5657 5657 5659 5660 5660
5642 5643 5644 5644 5644 5644 5644 5644 5645 5644 5643 5643 5645 5646 5649 5649 5649 5649 5650 5650 5650 5650 5650 5650 5649 5649 5649 5648 5648 5647 5647 5646 5646 5645 5644 5644 5644 5644 5645 5646 5646 5647 5649 5649
5634 5635 5636 5636 5636 5636 5636 5636 5636 5635 5634 5634 5636 5638 5640 5639 5639 5640 5640 5640 5640 5641 5640 5640 5639 5639 5639 5638 5637 5636 5636 5635 5634 5634 5633 5633 5633 5633 5634 5634 5635 5636 5637 5638
5627 5627 5628 5629 5629 5629 5629 5629 5628 5627 5627 5627 5627 5632 5631 5630 5630 5630 5630 5630 5630 5631 5631 5630 5629 5629 5629 5628 5627 5626 5625 5624 5624 5623 5623 5623 5623 5622 5623 5624 5624 5625 5626 5627
5619 5619 5620 5621 5622 5621 5621 5621 5621 5621 5620 5620 5619 5624 5623 5622 5621 5621 5621 5621 5621 5621 5621 5620 5620 5620 5619 5618 5617 5616 5615 5614 5614 5613 5613 5612 5612 5612 5612 5613 5614 5615 5616 5617
5611 5611 5612 5613 5615 5614 5613 5613 5613 5612 5612 5612 5612 5615 5614 5613 5612 5612 5612 5612 5612 5612 5612 5611 5610 5610 5609 5608 5607 5606 5605 5604 5604 5603 5602 5602 5602 5602 5603 5603 5604 5605 5606 5607
5603 5604 5605 5606 5605 5605 5605 5606 5605 5604 5603 5603 5604 5605 5606 5604 5603 5603 5603 5603 5603 5603 5603 5602 5601 5600 5599 5598 5597 5596 5596 5595 5594 5593 5592 5592 5592 5593 5593 5594 5594 5595 5596 5597
5595 5596 5597 5597 5597 5597 5597 5597 5597 5596 5596 5595 5596 5596 5597 5595 5594 5594 5593 5593 5593 5594 5593 5593 5592 5591 5590 5589 5588 5587 5586 5585 5585 5584 5583 5583 5583 5583 5584 5585 5585 5586 5586 5587
5588 5588 5589 5590 5590 5588 5588 5589 5588 5588 5587 5587 5587 5588 5588 5586 5585 5585 5584 5584 5584 5584 5584 5583 5582 5581 5581 5580 5579 5578 5577 5576 5576 5575 5574 5574 5574 5574 5575 5575 5575 5576 5577 5577
5580 5580 5580 5581 5582 5579 5580 5583 5581 5580 5580 5579 5578 5580 5579 5577 5576 5576 5575 5575 5574 5574 5574 5573 5573 5572 5571 5570 5570 5569 5568 5568 5567 5566 5566 5565 5565 5565 5565 5566 5566 5567 5567 5567
5572 5572 5572 5572 5573 5571 5577 5574 5573 5572 5572 5571 5570 5570 5569 5568 5567 5567 5566 5565 5564 5564 5564 5563 5563 5562 5562 5561 5560 5560 5559 5559 5558 5558 5557 5557 5556 5556 5557 5557 5557 5558 5558 5558
5565 5565 5564 5564 5563 5563 5567 5567 5565 5564 5565 5564 5562 5561 5560 5558 5557 5558 5557 5556 5555 5554 5554 5553 5553 5552 5552 5551 5551 5550 5550 5549 5549 5549 5549 5548 5548 5548 5549 5549 5549 5549 5550 5550
5557 5557 5557 5556 5555 5556 5560 5559 5557 5556 5557 5557 5554 5552 5551 5549 5549 5550 5548 5546 5545 5545 5544 5543 5543 5542 5542 5541 5541 5541 5541 5540 5540 5540 5539 5540 5540 5540 5540 5540 5541 5541 5541 5542
5550 5549 5549 5549 5547 5548 5552 5550 5549 5549 5550 5547 5545 5544 5542 5541 5540 5539 5538 5537 5536 5535 5534 5533 5533 5533 5532 5532 5531 5531 5531 5531 5531 5531 5531 5531 5531 5532 5532 5532 5532 5533 5533 5534
5542 5542 5542 5542 5541 5544 5543 5542 5542 5540 5539 5538 5536 5534 5533 5532 5531 5529 5528 5527 5526 5525 5524 5523 5523 5523 5522 5522 5522 5522 5522 5522 5522 5522 5522 5523 5523 5523 5524 5524 5525 5525 5525 5525
5535 5535 5534 5535 5537 5536 5534 5533 5532 5531 5530 5529 5527 5526 5524 5523 5521 5520 5519 5518 5517 5515 5514 5514 5513 5513 5513 5513 5513 5513 5513 5513 5513 5514 5514 5515 5515 5515 5516 5516 5516 5517 5517 5518
5527 5527 5526 5527 5528 5527 5526 5525 5524 5523 5521 5520 5518 5517 5516 5514 5513 5511 5510 5509 5508 5506 5505 5505 5504 5504 5504 5504 5504 5504 5504 5504 5504 5505 5506 5507 5507 5507 5507 5507 5508 5509 5509 5510
5519 5518 5518 5518 5520 5519 5518 5517 5515 5514 5512 5511 5509 5508 5506 5505 5504 5503 5501 5500 5499 5498 5497 5496 5496 5496 5495 5495 5495 5495 5495 5496 5496 5497 5498 5498 5499 5500 5500 5500 5500 5500 5501 5501
5511 5510 5510 5510 5511 5510 5510 5508 5506 5505 5504 5502 5501 5499 5498 5496 5495 5494 5493 5492 5491 5490 5489 5488 5487 5487 5487 5487 5487 5487 5487 5487 5488 5489 5490 5491 5491 5492 5492 5492 5492 5492 5493 5493